RH
65 54 50 51 50 48 44 42 40 35 31 29 25 27 27 16 13 18 18 19 24 24 24 27 30 32 35 36 32 29 28 26 25 28 29 30 33 31 34 47 55 53
80 69 61 56 51 52 51 47 47 46 39 32 29 40 48 29 13 15 14 14 21 23 23 26 31 31 31 33 30 27 27 27 26 28 29 30 32 29 28 36 41 44
78 76 80 74 61 56 56 53 53 56 55 46 36 41 48 33 20 18 14 12 15 18 20 23 30 33 29 28 29 28 28 28 27 26 27 30 30 28 30 33 35 41
81 83 88 79 68 63 61 60 58 58 62 57 45 41 41 34 30 27 21 18 14 11 15 19 27 36 35 30 26 26 27 27 28 26 24 27 28 29 32 33 30 27
81 88 86 72 65 65 66 66 63 59 59 59 51 46 44 40 36 34 35 32 24 18 16 15 21 31 34 32 27 25 26 26 29 30 27 28 27 26 30 37 36 29
64 75 81 74 65 64 64 65 69 68 63 60 56 51 49 47 42 41 46 46 42 34 22 13 14 21 28 32 28 24 25 26 27 28 29 29 25 21 22 30 33 28
48 55 66 70 70 73 70 62 67 74 72 64 58 54 51 48 45 45 45 47 47 42 31 22 16 13 18 26 27 22 21 23 25 26 27 26 23 21 19 19 22 22
46 45 52 61 72 84 81 68 64 69 76 73 63 57 55 50 47 46 43 40 40 41 39 35 30 22 16 13 16 22 23 22 22 23 25 26 23 21 19 17 17 18
47 42 44 51 59 70 77 77 69 62 67 76 73 65 59 55 52 49 47 42 38 39 39 37 37 35 31 21 12 13 18 20 20 20 22 25 25 21 18 17 16 17
49 42 40 42 44 50 59 69 72 63 57 67 79 77 67 62 59 54 52 49 45 42 39 37 36 35 38 38 28 19 17 15 15 19 19 20 22 22 20 19 17 16
51 47 41 40 42 46 50 55 63 66 59 61 75 82 79 75 69 63 59 54 51 50 44 40 39 35 35 39 40 39 34 21 10 12 16 17 19 21 21 21 21 18
51 50 46 44 44 49 52 52 55 59 59 61 66 73 80 84 80 74 70 65 60 55 51 48 45 41 38 35 37 43 45 39 25 13 10 12 14 17 19 20 21 20
52 50 48 47 46 48 50 52 53 54 55 55 55 58 67 77 85 88 86 85 85 76 64 58 52 47 45 42 39 38 41 47 45 36 29 21 11 11 15 18 20 21
56 52 49 47 47 47 49 51 52 52 52 50 48 47 50 56 71 91 97 95 98 98 87 78 69 57 50 49 50 46 40 41 46 50 52 41 23 16 14 11 13 17
61 57 51 47 45 46 49 53 54 53 52 49 46 44 43 42 50 78 102 102 96 99 98 95 91 81 68 59 56 55 50 44 41 43 50 52 45 38 32 22 15 12
64 63 58 52 48 46 48 53 58 60 56 51 50 48 45 41 40 54 81 95 95 93 93 94 97 98 91 79 68 63 60 55 49 43 41 45 50 50 49 47 40 29
63 64 64 62 58 51 50 55 61 66 64 58 55 54 50 45 43 44 51 61 67 68 69 77 90 99 100 95 88 81 73 67 63 56 47 42 44 48 50 51 52 51
61 61 63 67 65 58 55 59 62 65 69 67 62 62 59 51 47 47 46 47 49 47 46 52 68 88 100 101 98 95 91 86 78 71 64 55 46 43 46 47 47 49
66 63 60 57 61 69 75 76 76 72 65 62 63 67 67 58 52 54 57 56 50 44 42 41 45 62 84 96 100 101 98 95 93 89 83 73 56 44 42 44 44 44
73 68 61 54 55 68 83 88 93 92 73 54 55 62 60 53 54 60 63 64 59 50 46 49 51 53 60 72 86 97 96 90 92 96 91 79 64 50 43 41 41 44
81 71 63 63 60 58 61 64 69 74 63 47 47 54 55 54 59 66 72 77 79 69 53 52 59 59 54 54 63 78 87 86 84 87 82 70 60 53 48 46 43 42
95 82 66 63 64 60 54 49 47 48 46 44 46 50 57 61 59 67 85 93 89 82 73 69 72 69 62 61 62 62 68 72 72 73 74 68 58 50 46 48 50 48
102 98 83 69 68 73 68 55 48 47 48 49 51 56 70 80 74 74 92 98 86 83 90 94 97 95 87 85 83 78 76 76 72 68 70 71 65 57 53 51 51 49
101 104 99 85 76 79 80 66 54 59 69 70 65 66 81 96 94 90 99 102 89 83 90 96 100 103 102 100 97 96 98 98 92 81 71 66 62 61 61 58 51 45
101 101 102 99 86 79 80 70 59 71 94 97 83 79 89 99 99 96 100 103 97 89 88 94 98 99 103 104 98 97 103 105 102 98 89 76 67 64 65 65 60 54
103 99 100 104 100 93 90 79 62 66 89 100 94 92 98 100 98 98 100 101 102 99 94 98 102 99 101 104 96 92 100 103 99 101 102 94 83 76 74 72 67 62
Wind_Speed
12 13 13 15 15 15 16 18 19 19 20 20 19 19 19 19 19 18 18 18 18 18 19 19 19 20 21 22 22 21 21 20 20 19 20 20 19 20 19 19 20 22
9 11 12 13 14 15 15 16 17 17 18 19 19 19 19 19 19 18 18 18 17 17 18 19 19 20 22 22 22 22 21 21 21 21 21 21 21 21 22 21 21 22
7 8 10 10 12 13 14 14 15 15 16 18 19 19 19 20 19 19 18 18 18 18 18 19 19 20 23 23 22 22 22 22 22 22 21 21 21 22 22 21 21 20
5 6 6 6 8 10 12 12 13 13 14 16 18 18 18 20 20 20 20 19 19 19 18 18 18 19 21 22 22 21 22 22 22 22 21 20 20 20 21 21 21 21
2 3 3 3 4 7 9 10 11 11 12 13 16 17 17 18 20 20 21 21 21 20 19 19 19 18 19 20 21 20 20 20 20 20 20 19 19 19 19 19 20 19
5 4 1 1 2 4 5 7 8 9 10 11 13 15 16 17 19 19 20 21 22 21 20 19 18 18 17 17 18 19 18 18 18 18 18 18 17 17 17 18 17 17
9 7 5 3 2 3 3 4 6 7 7 8 10 12 13 15 17 18 19 20 20 21 21 20 18 17 16 15 15 16 17 17 16 16 16 16 16 16 16 16 16 16
12 10 8 6 4 4 4 3 4 5 5 5 6 8 9 12 14 15 16 16 18 19 21 21 20 18 16 15 14 14 14 14 15 15 14 13 13 13 13 14 15 15
15 13 11 9 7 6 6 5 5 5 5 4 4 5 6 7 9 11 12 12 13 16 18 19 20 20 17 16 14 13 12 12 12 13 13 11 11 11 11 11 12 13
18 16 14 12 10 9 9 8 8 7 7 6 5 5 5 5 5 7 8 8 8 10 13 15 17 18 18 17 15 13 11 10 10 10 10 10 10 9 9 9 9 9
20 19 17 15 13 12 11 11 11 10 9 9 8 7 7 6 5 4 5 5 5 6 7 9 12 14 16 16 16 13 10 9 8 8 7 8 9 8 8 7 7 6
23 22 21 19 16 14 12 12 13 12 11 10 10 10 10 10 8 7 5 5 5 5 5 5 7 10 12 13 14 14 11 10 9 7 6 5 5 6 6 6 5 5
27 25 24 23 21 17 14 13 13 14 13 12 12 12 12 13 12 11 9 7 7 7 7 5 4 4 7 9 11 12 12 11 10 8 6 5 3 2 3 4 5 5
31 29 28 27 25 23 20 16 15 16 16 16 15 14 14 14 14 13 11 8 7 8 9 9 8 6 4 5 7 9 10 11 10 9 7 7 6 4 1 1 3 4
35 34 32 30 28 27 26 23 19 18 18 19 19 18 18 16 15 14 13 11 8 6 7 9 11 11 10 8 7 7 8 9 10 9 8 8 8 7 6 5 4 4
37 37 35 33 31 30 30 29 26 24 22 22 22 22 21 19 18 17 16 16 15 13 11 10 10 13 14 13 11 10 8 8 8 9 9 9 8 8 8 8 7 7
39 38 37 34 32 31 31 31 30 28 26 25 25 25 24 22 22 21 20 20 21 21 19 15 12 13 15 16 16 16 13 11 10 10 11 11 10 9 9 9 9 9
43 41 39 36 34 34 34 33 33 32 30 28 28 27 26 25 25 25 23 23 24 24 23 20 17 15 14 16 18 20 19 16 14 13 13 14 14 12 11 10 10 11
46 45 43 40 40 40 38 36 36 35 34 32 30 30 30 28 27 27 27 26 26 25 25 23 21 20 19 17 16 18 20 20 18 17 16 17 18 17 16 15 13 13
51 49 47 45 45 45 42 39 38 37 36 35 33 33 34 31 29 29 30 30 29 28 27 26 25 25 26 24 20 19 20 20 20 20 20 21 22 21 21 20 19 17
53 52 51 51 50 49 47 45 43 41 40 38 36 37 37 34 32 33 33 32 31 30 29 29 28 29 30 29 27 25 25 24 23 23 24 25 26 26 26 25 24 23
52 51 52 53 52 50 50 48 47 46 45 42 41 40 39 37 36 36 35 34 34 33 32 31 31 31 31 32 30 29 29 30 29 28 29 30 30 31 30 29 28 27
53 52 52 52 50 49 48 47 47 47 46 45 44 43 41 40 40 40 39 38 38 36 34 33 32 31 32 33 33 32 32 34 35 33 33 33 34 34 34 33 31 30
55 55 55 53 51 49 48 47 48 47 46 45 45 44 42 40 39 39 37 38 39 39 38 36 35 35 35 35 34 33 33 35 37 38 37 36 36 37 37 37 35 33
57 58 59 56 53 52 51 50 50 48 45 42 42 43 41 38 38 38 37 38 40 41 40 40 39 39 38 38 36 35 35 36 38 40 40 39 39 39 40 41 40 38
62 62 62 59 55 53 53 52 53 53 50 46 44 45 45 42 41 41 40 38 38 38 39 40 41 42 40 39 39 39 39 39 40 41 42 42 42 42 43 44 43 41
Wind_Direction
58 52 51 48 42 39 38 38 38 37 36 35 37 42 45 47 51 55 57 62 68 69 68 67 66 66 67 65 64 62 62 64 67 69 72 76 81 84 88 93 93 94
72 57 50 45 40 38 37 37 37 37 35 33 32 33 34 37 42 48 51 55 61 66 68 70 70 72 70 67 66 66 66 66 69 72 75 79 84 88 92 95 99 103
84 65 52 44 38 37 35 35 36 35 34 33 32 31 29 31 35 39 43 47 52 57 62 67 72 74 74 71 68 68 68 68 70 71 75 81 86 91 94 94 98 105
84 70 60 45 36 37 35 32 34 36 34 32 33 32 30 30 31 33 35 39 44 50 56 60 66 72 75 73 70 69 70 72 73 74 76 79 84 91 95 96 99 104
133 103 75 39 25 37 40 34 32 34 33 31 32 32 31 31 31 30 32 32 34 41 48 52 57 65 73 75 73 71 71 72 75 77 78 78 81 89 96 101 106 109
221 209 208 310 341 13 35 38 34 31 29 29 31 33 34 34 33 32 32 32 31 32 38 45 51 58 65 72 76 76 75 74 74 75 76 78 83 90 97 103 110 116
242 235 236 254 296 326 354 20 31 32 27 21 26 34 38 37 36 37 37 35 33 31 33 38 44 51 56 63 72 80 81 79 77 73 73 79 84 89 97 104 112 119
249 245 241 242 258 285 296 320 357 12 15 11 14 26 37 41 38 38 40 40 40 38 37 38 39 43 50 56 64 74 80 83 84 79 76 78 81 85 95 104 114 121
250 250 246 240 242 257 269 276 295 322 336 339 349 357 12 33 36 35 38 42 44 44 42 41 39 37 39 46 55 63 70 78 86 86 84 83 79 80 88 99 112 123
249 248 247 246 246 249 256 262 269 285 306 312 312 317 327 351 16 23 27 32 37 44 45 44 41 37 33 34 41 51 60 68 80 88 93 95 90 80 78 86 101 120
246 244 246 250 252 254 255 258 262 270 282 292 294 295 297 299 310 338 358 4 10 25 42 47 44 39 34 29 31 36 42 50 66 81 92 100 103 98 90 88 91 106
246 243 245 249 251 255 259 257 258 263 268 273 279 285 289 289 287 291 303 317 330 341 5 35 42 39 34 26 23 23 24 29 40 54 67 81 102 112 113 114 111 114
246 243 243 246 248 251 256 259 258 259 260 262 266 273 281 286 286 283 285 300 314 317 321 332 352 18 27 20 12 10 12 14 19 29 35 32 45 99 133 143 144 148
246 245 243 245 247 248 250 254 257 259 258 258 260 264 268 274 280 278 278 287 304 316 314 310 307 302 316 348 354 355 358 359 2 11 12 6 5 3 337 242 202 192
245 244 243 245 246 247 248 249 252 256 258 258 258 261 262 265 268 268 264 259 260 279 297 299 301 295 287 291 303 319 332 339 347 352 352 353 358 358 350 339 312 275
246 244 244 245 246 247 249 250 251 253 256 257 256 257 259 262 263 259 255 254 255 261 269 276 283 283 281 282 284 287 293 305 323 334 338 340 343 345 347 345 339 328
247 246 245 245 246 248 250 251 253 253 254 255 254 254 255 259 262 260 254 254 257 263 268 271 273 271 271 277 282 284 284 287 297 313 323 327 326 327 329 330 330 330
245 246 246 246 247 249 250 251 254 254 253 253 254 254 254 254 258 261 258 254 254 258 263 267 271 274 272 274 279 282 285 286 289 297 307 311 312 313 314 315 316 316
243 243 245 247 250 252 251 251 253 253 252 252 254 255 255 253 254 257 258 257 254 254 258 261 265 269 269 267 270 275 279 281 282 286 293 298 303 306 308 309 310 310
242 242 243 245 247 250 252 252 251 252 253 253 253 253 254 254 253 254 257 259 258 255 255 257 260 263 264 262 263 266 270 274 275 277 281 289 296 301 303 305 307 308
243 242 242 242 242 244 247 250 252 254 255 255 254 253 253 253 252 253 255 258 260 259 256 255 255 258 260 262 262 264 267 270 273 275 278 283 289 294 296 298 300 301
245 244 243 242 242 243 243 244 248 251 252 253 254 254 254 251 250 252 255 258 260 260 258 256 255 255 257 260 260 261 265 268 269 272 276 279 283 286 289 290 291 293
245 247 245 243 241 241 240 240 243 246 247 250 253 255 257 255 253 254 257 257 258 259 258 255 255 255 258 260 260 260 261 264 266 266 267 271 275 278 281 282 283 284
242 245 247 245 240 239 239 240 242 244 246 249 251 254 257 258 255 255 256 255 253 255 257 257 256 257 259 260 261 262 261 262 264 263 262 264 268 271 274 276 278 279
236 239 243 244 241 239 241 241 240 240 240 242 245 249 253 253 251 251 255 255 252 252 257 259 260 260 260 260 261 262 262 262 264 265 263 262 263 265 268 271 274 275
233 235 237 239 240 241 243 242 238 236 235 237 241 245 247 247 246 247 251 254 252 252 256 260 261 261 261 261 262 262 261 261 264 267 267 264 263 262 263 266 269 271